2020/11/20 22:09:37+0000,-40.15,-52.03,-31.77,-47.09,-55.65,-55.44
2020/11/20 22:10:29+0000,-41.43,-52.13,-32.32,-45.83,-55.56,-56.16
2020/11/20 22:11:30+0000,-40.88,-51.92,-32.99,-44.21,-17.28,-55.46
2020/11/20 22:12:22+0000,-41.55,-51.47,-33.26,-46.10,-54.66,-55.62
2020/11/20 22:13:14+0000,-40.73,-50.25,-33.76,-47.54,-54.27,-56.14
2020/11/20 22:14:06+0000,-39.72,-52.35,-32.81,-47.08,-15.40,-55.91
2020/11/20 22:14:58+0000,-39.95,-50.93,-32.85,-45.36,-16.05,-55.85
2020/11/20 22:15:50+0000,-40.50,-51.22,-33.36,-46.40,-54.92,-55.94
2020/11/20 22:16:42+0000,-40.12,-51.45,-33.20,-46.64,-54.61,-55.37
2020/11/20 22:17:34+0000,-39.57,-50.54,-32.64,-50.08,-17.18,-55.61
2020/11/20 22:18:26+0000,-39.98,-50.94,-32.96,-44.83,-54.05,-56.21
2020/11/20 22:19:18+0000,-39.55,-50.87,-33.37,-50.36,-54.99,-55.62
2020/11/20 22:20:11+0000,-39.47,-51.04,-32.90,-46.91,-55.00,-55.86
2020/11/20 22:21:08+0000,-39.89,-51.51,-32.74,-46.52,-16.28,-56.18
2020/11/20 22:22:00+0000,-40.42,-49.27,-31.92,-42.22,-15.47,-55.42
2020/11/20 22:22:52+0000,-39.83,-51.88,-33.09,-43.90,-55.11,-55.73
2020/11/20 22:23:44+0000,-40.41,-51.20,-33.47,-43.02,-54.42,-55.97
2020/11/20 22:24:36+0000,-39.93,-51.76,-32.01,-48.26,-54.16,-55.24
2020/11/20 22:25:28+0000,-39.34,-51.22,-33.13,-42.55,-54.56,-55.73
2020/11/20 22:26:20+0000,-39.92,-50.54,-33.44,-50.13,-54.80,-55.38
2020/11/20 22:27:12+0000,-39.77,-51.65,-33.73,-46.03,-55.23,-55.43
2020/11/20 22:28:04+0000,-39.61,-48.37,-32.28,-50.40,-55.66,-55.53
2020/11/20 22:28:56+0000,-39.72,-50.66,-32.87,-44.78,-55.23,-55.26
2020/11/20 22:29:48+0000,-39.47,-49.87,-33.31,-51.29,-54.92,-55.58
2020/11/20 22:30:41+0000,-39.66,-50.81,-31.46,-49.20,-55.13,-55.44
2020/11/20 22:31:41+0000,-40.64,-51.30,-31.58,-47.24,-55.07,-55.50
2020/11/20 22:32:33+0000,-39.17,-51.65,-32.44,-46.31,-54.75,-55.73
2020/11/20 22:33:25+0000,-38.90,-45.66,-32.66,-44.23,-53.56,-55.42
2020/11/20 22:34:17+0000,-39.46,-43.34,-33.03,-46.92,-54.38,-55.36
2020/11/20 22:35:09+0000,-38.90,-47.12,-32.46,-47.66,-54.79,-55.25
2020/11/20 22:36:01+0000,-39.13,-44.35,-32.77,-42.98,-54.59,-56.46
2020/11/20 22:36:54+0000,-38.92,-43.03,-33.27,-46.66,-54.93,-55.65
2020/11/20 22:37:46+0000,-39.90,-45.65,-33.23,-46.52,-54.28,-55.54
2020/11/20 22:38:38+0000,-38.92,-47.38,-32.82,-47.41,-53.25,-55.74
2020/11/20 22:39:30+0000,-39.15,-47.06,-32.31,-44.78,-54.13,-55.41
2020/11/20 22:40:22+0000,-38.26,-48.45,-33.38,-45.43,-54.82,-55.11
2020/11/20 22:41:26+0000,-38.42,-45.91,-33.72,-47.84,-55.27,-55.45
2020/11/20 22:42:18+0000,-38.80,-46.28,-32.52,-48.25,-54.44,-55.84
2020/11/20 22:43:10+0000,-38.53,-46.29,-32.50,-45.43,-54.34,-55.37
2020/11/20 22:44:02+0000,-38.50,-45.21,-31.91,-47.01,-53.07,-55.40
2020/11/20 22:44:54+0000,-39.29,-46.71,-33.34,-47.57,-53.88,-55.96
2020/11/20 22:45:46+0000,-39.02,-45.59,-32.62,-47.06,-53.34,-55.52
2020/11/20 22:46:38+0000,-39.03,-47.82,-32.15,-47.64,-54.04,-56.05
2020/11/20 22:47:30+0000,-39.36,-47.53,-32.81,-46.88,-55.09,-55.13
2020/11/20 22:48:22+0000,-38.19,-47.44,-33.05,-48.04,-54.10,-55.53
2020/11/20 22:49:14+0000,-39.09,-46.27,-33.61,-46.75,-54.23,-56.12
2020/11/20 22:50:07+0000,-38.56,-48.48,-32.08,-48.16,-55.21,-55.49
2020/11/20 22:51:10+0000,-39.41,-46.06,-32.63,-47.10,-54.25,-55.22
2020/11/20 22:52:02+0000,-38.26,-46.41,-32.08,-48.18,-54.78,-55.50
2020/11/20 22:52:54+0000,-39.34,-47.06,-33.05,-48.89,-54.15,-55.66
2020/11/20 22:53:46+0000,-38.82,-45.17,-32.95,-45.20,-54.97,-56.29
2020/11/20 22:54:38+0000,-37.99,-46.79,-32.08,-46.35,-54.22,-55.44
2020/11/20 22:55:30+0000,-39.45,-47.46,-33.11,-47.54,-54.29,-55.49
2020/11/20 22:56:22+0000,-38.17,-46.51,-33.50,-46.53,-54.43,-55.29
2020/11/20 22:57:14+0000,-38.31,-45.72,-33.35,-46.45,-54.75,-55.91
2020/11/20 22:58:06+0000,-38.94,-47.75,-32.70,-47.91,-53.78,-55.87
2020/11/20 22:58:58+0000,-39.25,-46.30,-33.15,-48.26,-54.42,-55.69
2020/11/20 22:59:51+0000,-38.33,-47.27,-33.17,-50.98,-55.10,-55.25
2020/11/20 23:00:43+0000,-38.13,-46.07,-32.76,-47.11,-55.34,-55.36
2020/11/20 23:01:48+0000,-37.99,-47.24,-32.79,-51.70,-54.21,-55.65
2020/11/20 23:02:40+0000,-38.69,-45.98,-32.60,-46.05,-55.32,-55.73
2020/11/20 23:03:32+0000,-37.79,-44.15,-32.88,-51.79,-53.92,-55.78
2020/11/20 23:04:24+0000,-37.64,-46.03,-32.84,-47.22,-54.66,-55.78
2020/11/20 23:05:17+0000,-38.89,-46.78,-33.72,-46.62,-53.94,-55.68
2020/11/20 23:06:09+0000,-37.68,-45.78,-31.75,-45.41,-54.33,-56.03
2020/11/20 23:07:01+0000,-38.18,-47.41,-31.94,-48.16,-54.02,-56.26
2020/11/20 23:07:53+0000,-38.28,-45.45,-33.45,-46.85,-54.79,-56.20
2020/11/20 23:08:45+0000,-38.28,-45.51,-33.46,-47.35,-54.40,-56.10
2020/11/20 23:09:37+0000,-37.79,-44.46,-30.98,-46.33,-54.63,-55.60
2020/11/20 23:10:29+0000,-38.21,-44.08,-32.33,-46.59,-54.37,-56.17
2020/11/20 23:11:28+0000,-38.79,-47.99,-33.23,-46.88,-54.52,-56.19
2020/11/20 23:12:20+0000,-39.42,-51.51,-33.17,-47.06,-54.18,-56.26
2020/11/20 23:13:12+0000,-38.69,-45.32,-33.08,-46.19,-53.60,-55.11
2020/11/20 23:14:04+0000,-38.49,-49.05,-31.83,-50.16,-54.56,-55.06
2020/11/20 23:14:56+0000,-38.23,-46.33,-32.89,-49.62,-53.02,-56.07
2020/11/20 23:15:48+0000,-38.00,-43.20,-32.78,-50.14,-54.80,-56.47
2020/11/20 23:16:40+0000,-39.13,-44.04,-31.28,-48.03,-54.85,-55.64
2020/11/20 23:17:32+0000,-39.54,-44.70,-31.71,-47.36,-53.84,-55.95
2020/11/20 23:18:24+0000,-39.13,-44.60,-32.90,-48.42,-47.61,-56.34
2020/11/20 23:19:16+0000,-39.91,-44.35,-33.18,-45.50,-16.45,-55.91
2020/11/20 23:20:09+0000,-38.55,-44.65,-32.85,-48.02,-54.53,-56.00
2020/11/20 23:21:07+0000,-39.05,-45.87,-31.70,-46.32,-53.98,-56.13
2020/11/20 23:21:59+0000,-39.35,-45.70,-31.73,-48.41,-54.43,-55.92
2020/11/20 23:22:51+0000,-39.58,-44.83,-33.13,-48.80,-15.75,-55.72
2020/11/20 23:23:43+0000,-38.57,-44.37,-33.44,-44.74,-16.07,-56.07
2020/11/20 23:24:35+0000,-40.27,-46.74,-31.66,-47.15,-54.09,-56.40
2020/11/20 23:25:27+0000,-38.81,-45.31,-33.97,-47.12,-54.71,-56.22
2020/11/20 23:26:19+0000,-39.23,-44.87,-32.99,-51.63,-15.64,-56.10
2020/11/20 23:27:12+0000,-39.50,-45.19,-33.64,-48.21,-54.76,-55.85
2020/11/20 23:28:04+0000,-40.47,-44.17,-32.02,-50.56,-54.99,-55.47
2020/11/20 23:28:56+0000,-39.23,-44.51,-33.59,-48.81,-54.57,-56.17
2020/11/20 23:29:48+0000,-39.57,-42.09,-33.46,-51.33,-15.72,-56.41
2020/11/20 23:30:40+0000,-39.39,-44.72,-32.24,-49.42,-54.48,-55.89
2020/11/20 23:31:39+0000,-40.13,-45.05,-32.06,-48.27,-54.36,-56.23
2020/11/20 23:32:32+0000,-39.46,-44.51,-32.75,-44.43,-55.22,-56.34
2020/11/20 23:33:24+0000,-39.32,-47.39,-33.57,-45.91,-16.47,-56.52
2020/11/20 23:34:16+0000,-39.11,-42.48,-33.84,-49.05,-16.47,-56.61
2020/11/20 23:35:08+0000,-39.58,-46.96,-32.21,-48.39,-54.81,-56.12
2020/11/20 23:36:00+0000,-40.40,-45.46,-31.47,-49.33,-53.55,-56.02
2020/11/20 23:36:52+0000,-38.73,-47.14,-33.64,-49.51,-54.46,-56.34
2020/11/20 23:37:44+0000,-39.24,-43.57,-34.17,-46.98,-54.78,-56.71
2020/11/20 23:38:36+0000,-40.31,-46.74,-32.33,-49.22,-54.80,-56.66
2020/11/20 23:39:28+0000,-38.89,-46.62,-33.98,-50.38,-54.67,-55.96
2020/11/20 23:40:20+0000,-40.49,-46.64,-32.46,-51.44,-54.83,-56.45
2020/11/20 23:41:19+0000,-38.62,-43.81,-32.51,-51.27,-55.15,-56.67
2020/11/20 23:42:11+0000,-40.01,-46.95,-32.30,-47.61,-54.69,-56.25
2020/11/20 23:43:03+0000,-39.78,-45.97,-31.48,-47.95,-54.03,-56.10
2020/11/20 23:43:55+0000,-40.31,-47.27,-34.04,-48.61,-55.16,-56.52
2020/11/20 23:44:47+0000,-38.97,-46.81,-33.83,-49.02,-54.90,-56.32
2020/11/20 23:45:39+0000,-37.59,-46.27,-33.01,-47.43,-54.15,-56.68
2020/11/20 23:46:31+0000,-37.69,-46.90,-32.92,-48.83,-54.83,-56.65
2020/11/20 23:47:23+0000,-39.40,-47.42,-33.54,-49.74,-54.50,-56.74
2020/11/20 23:48:15+0000,-40.26,-46.54,-33.81,-49.24,-54.30,-56.43
2020/11/20 23:49:07+0000,-39.04,-47.88,-32.77,-45.90,-53.56,-56.57
2020/11/20 23:49:59+0000,-39.48,-46.91,-33.73,-47.01,-54.79,-56.18
2020/11/20 23:50:52+0000,-38.44,-46.08,-20.59,-45.39,-53.70,-56.37
2020/11/20 23:51:51+0000,-39.52,-47.44,-24.26,-47.64,-54.56,-56.25
2020/11/20 23:52:44+0000,-38.99,-38.21,-34.28,-48.58,-53.78,-57.03
2020/11/20 23:53:36+0000,-38.87,-46.89,-32.19,-49.34,-54.12,-56.24
2020/11/20 23:54:28+0000,-39.32,-46.92,-19.36,-46.96,-53.75,-53.60
2020/11/20 23:55:20+0000,-39.45,-38.77,-19.39,-48.50,-53.85,-53.17
2020/11/20 23:56:12+0000,-39.48,-38.11,-32.35,-48.53,-54.47,-53.62
2020/11/20 23:57:04+0000,-38.48,-45.49,-31.98,-48.13,-53.71,-53.55
2020/11/20 23:57:56+0000,-39.02,-45.83,-20.92,-47.71,-53.36,-53.61
2020/11/20 23:58:48+0000,-39.49,-39.38,-19.01,-46.59,-53.50,-53.45
2020/11/20 23:59:40+0000,-39.36,-46.72,-32.57,-46.41,-53.89,-54.25
2020/11/21 00:00:32+0000,-38.98,-39.06,-32.09,-48.42,-53.26,-53.94
2020/11/21 00:01:38+0000,-38.20,-45.14,-33.47,-46.64,-53.82,-54.25
2020/11/21 00:02:31+0000,-38.86,-38.85,-33.57,-48.18,-53.97,-54.59
2020/11/21 00:03:23+0000,-39.17,-46.75,-19.60,-47.61,-54.43,-53.74
2020/11/21 00:04:15+0000,-39.68,-46.56,-19.05,-46.75,-53.98,-54.00
2020/11/21 00:05:07+0000,-39.10,-47.83,-33.58,-46.98,-54.36,-55.50
2020/11/21 00:05:59+0000,-39.86,-46.14,-33.36,-47.85,-54.27,-54.86
2020/11/21 00:06:51+0000,-39.50,-46.41,-26.31,-47.49,-52.67,-54.90
2020/11/21 00:07:43+0000,-38.95,-47.36,-32.71,-47.46,-54.01,-54.82
2020/11/21 00:08:35+0000,-38.99,-46.00,-33.80,-47.77,-54.19,-54.38
2020/11/21 00:09:27+0000,-38.11,-38.55,-33.98,-47.24,-53.68,-55.05
2020/11/21 00:10:20+0000,-39.03,-46.95,-33.89,-49.44,-53.88,-55.25
2020/11/21 00:11:21+0000,-38.76,-47.01,-33.86,-48.31,-53.45,-54.58
2020/11/21 00:12:13+0000,-40.10,-40.49,-33.46,-46.59,-53.33,-54.35
2020/11/21 00:13:06+0000,-38.58,-47.74,-33.39,-48.32,-53.77,-54.53
2020/11/21 00:13:58+0000,-39.53,-44.71,-34.41,-48.63,-53.74,-54.76
2020/11/21 00:14:50+0000,-39.27,-48.56,-33.55,-48.66,-54.32,-54.86
2020/11/21 00:15:42+0000,-39.59,-40.34,-33.64,-46.76,-53.91,-54.79
2020/11/21 00:16:34+0000,-39.15,-46.38,-34.47,-48.74,-53.74,-55.45
2020/11/21 00:17:26+0000,-39.33,-47.14,-33.97,-48.61,-54.26,-54.67
2020/11/21 00:18:18+0000,-39.83,-39.65,-34.31,-49.14,-54.72,-54.68
2020/11/21 00:19:10+0000,-39.50,-40.08,-33.89,-46.00,-54.09,-55.38
2020/11/21 00:20:02+0000,-39.96,-46.65,-34.23,-48.89,-53.99,-55.59
2020/11/21 00:21:04+0000,-39.76,-46.44,-33.76,-49.20,-53.84,-55.43
2020/11/21 00:21:56+0000,-39.40,-47.73,-32.11,-46.02,-54.57,-55.33
2020/11/21 00:22:48+0000,-40.03,-45.49,-33.81,-47.10,-53.93,-55.35
2020/11/21 00:23:40+0000,-39.65,-47.40,-33.50,-45.88,-54.45,-55.09
2020/11/21 00:24:32+0000,-39.83,-46.31,-34.14,-48.90,-53.69,-55.30
2020/11/21 00:25:24+0000,-39.41,-46.84,-34.03,-48.61,-54.38,-55.58
2020/11/21 00:26:16+0000,-39.40,-46.88,-34.40,-46.03,-53.14,-54.67
2020/11/21 00:27:08+0000,-40.32,-47.14,-34.19,-48.19,-53.82,-55.64
2020/11/21 00:28:00+0000,-40.16,-46.92,-34.17,-49.09,-54.16,-55.14
2020/11/21 00:28:52+0000,-40.46,-47.03,-34.19,-48.70,-53.79,-55.14
2020/11/21 00:29:45+0000,-39.25,-46.41,-34.52,-47.21,-53.53,-55.12
2020/11/21 00:30:37+0000,-38.95,-46.98,-33.96,-48.38,-53.10,-55.93
2020/11/21 00:31:33+0000,-39.07,-37.83,-34.10,-49.23,-54.36,-55.61
2020/11/21 00:32:25+0000,-39.37,-37.88,-33.70,-49.31,-54.55,-55.06
2020/11/21 00:33:17+0000,-39.80,-45.77,-33.29,-47.91,-54.39,-55.31
2020/11/21 00:34:09+0000,-37.99,-45.38,-33.81,-48.30,-53.77,-55.47
2020/11/21 00:35:01+0000,-40.43,-38.13,-34.15,-48.49,-54.62,-55.60
2020/11/21 00:35:54+0000,-39.22,-38.75,-33.66,-47.98,-54.37,-55.30
2020/11/21 00:36:46+0000,-40.02,-45.41,-33.75,-49.41,-53.80,-55.27
2020/11/21 00:37:38+0000,-38.81,-48.14,-34.67,-48.63,-53.69,-55.42
2020/11/21 00:38:30+0000,-39.94,-38.01,-34.61,-48.97,-53.95,-55.53
2020/11/21 00:39:22+0000,-38.70,-47.02,-34.88,-48.46,-54.22,-55.09
2020/11/21 00:40:14+0000,-40.00,-46.94,-34.79,-48.62,-53.52,-55.39
2020/11/21 00:41:19+0000,-39.44,-46.79,-33.75,-49.08,-54.00,-55.62
2020/11/21 00:42:11+0000,-38.81,-47.68,-34.62,-48.90,-53.97,-55.52
2020/11/21 00:43:03+0000,-38.75,-38.36,-34.77,-49.49,-53.49,-55.79
2020/11/21 00:43:55+0000,-39.40,-37.78,-34.59,-48.67,-53.45,-55.71
2020/11/21 00:44:48+0000,-39.64,-45.99,-34.30,-48.88,-53.19,-55.38
2020/11/21 00:45:40+0000,-39.58,-48.39,-34.53,-49.17,-54.11,-54.88
2020/11/21 00:46:32+0000,-39.40,-37.65,-34.07,-49.02,-53.56,-54.84
2020/11/21 00:47:24+0000,-38.92,-40.90,-34.65,-49.37,-53.93,-55.18
2020/11/21 00:48:16+0000,-39.21,-45.19,-35.97,-49.90,-54.13,-55.14
2020/11/21 00:49:08+0000,-39.09,-47.02,-35.03,-49.64,-53.30,-54.85
2020/11/21 00:50:00+0000,-39.24,-46.21,-35.29,-49.17,-53.91,-54.09
2020/11/21 00:51:05+0000,-39.54,-46.94,-36.19,-49.40,-53.59,-54.43
2020/11/21 00:51:57+0000,-39.08,-46.29,-35.86,-49.77,-53.24,-55.31
2020/11/21 00:52:49+0000,-38.61,-47.72,-36.21,-49.70,-54.58,-54.80
2020/11/21 00:53:41+0000,-38.45,-47.68,-35.20,-49.47,-53.47,-54.73
2020/11/21 00:54:33+0000,-38.11,-45.22,-34.13,-49.31,-54.18,-54.29
2020/11/21 00:55:25+0000,-39.86,-46.46,-35.89,-49.39,-53.51,-54.62
2020/11/21 00:56:17+0000,-38.04,-49.86,-34.93,-49.21,-53.71,-54.38
2020/11/21 00:57:09+0000,-38.27,-50.67,-33.02,-49.22,-54.27,-54.78
2020/11/21 00:58:01+0000,-40.30,-50.32,-35.06,-49.49,-54.17,-55.39
2020/11/21 00:58:53+0000,-39.15,-49.95,-35.18,-49.57,-52.37,-53.99
2020/11/21 00:59:46+0000,-38.88,-50.47,-35.06,-48.99,-54.08,-54.23
2020/11/21 01:00:38+0000,-38.44,-51.54,-35.05,-50.18,-53.83,-54.59
2020/11/21 01:01:37+0000,-39.95,-50.90,-35.36,-48.69,-54.32,-54.65
2020/11/21 01:02:29+0000,-38.42,-49.52,-35.92,-49.83,-53.55,-53.83
2020/11/21 01:03:21+0000,-39.16,-52.17,-35.10,-49.74,-53.32,-54.35
2020/11/21 01:04:13+0000,-39.88,-50.12,-35.43,-49.55,-52.93,-54.64
2020/11/21 01:05:05+0000,-35.76,-51.81,-35.50,-49.79,-54.26,-53.76
2020/11/21 01:05:57+0000,-39.98,-51.83,-35.15,-49.74,-54.02,-54.43
2020/11/21 01:06:49+0000,-38.27,-50.79,-34.92,-49.13,-53.66,-54.06
2020/11/21 01:07:41+0000,-36.81,-50.48,-35.19,-49.36,-54.33,-53.40
2020/11/21 01:08:33+0000,-37.68,-49.87,-35.51,-49.40,-54.44,-54.43
2020/11/21 01:09:25+0000,-38.49,-49.90,-35.23,-48.69,-53.58,-53.72
2020/11/21 01:10:18+0000,-38.20,-49.34,-35.33,-49.05,-53.63,-54.33
2020/11/21 01:11:23+0000,-39.78,-50.27,-34.22,-49.07,-53.34,-54.03
2020/11/21 01:12:15+0000,-39.66,-49.49,-34.60,-49.10,-54.00,-56.28
2020/11/21 01:13:07+0000,-37.90,-49.81,-34.37,-48.49,-54.15,-54.94
2020/11/21 01:13:59+0000,-39.89,-50.45,-33.59,-49.01,-54.19,-54.84
2020/11/21 01:14:51+0000,-40.05,-51.62,-33.96,-48.61,-54.06,-56.37
2020/11/21 01:15:43+0000,-40.28,-50.71,-34.53,-42.04,-54.03,-56.01
2020/11/21 01:16:35+0000,-38.56,-51.73,-33.60,-48.77,-53.92,-56.11
2020/11/21 01:17:27+0000,-39.83,-50.02,-35.00,-49.23,-53.95,-55.98
2020/11/21 01:18:20+0000,-39.93,-47.96,-34.51,-49.78,-54.48,-55.85
2020/11/21 01:19:12+0000,-39.74,-49.68,-34.54,-50.08,-54.65,-56.68
2020/11/21 01:20:04+0000,-39.94,-50.58,-35.11,-49.28,-54.13,-56.25
2020/11/21 01:21:01+0000,-40.58,-50.90,-34.45,-48.54,-54.57,-56.76
2020/11/21 01:21:53+0000,-40.55,-51.08,-33.93,-49.13,-54.20,-56.79
2020/11/21 01:22:45+0000,-39.97,-49.77,-34.82,-49.80,-54.47,-56.81
2020/11/21 01:23:37+0000,-39.60,-50.28,-34.62,-49.65,-53.93,-57.09
2020/11/21 01:24:29+0000,-39.82,-50.71,-34.41,-49.49,-53.98,-57.17
2020/11/21 01:25:21+0000,-38.97,-51.25,-34.57,-49.12,-54.18,-55.79
2020/11/21 01:26:14+0000,-39.69,-50.68,-34.15,-49.27,-54.39,-56.56
2020/11/21 01:27:06+0000,-39.30,-51.21,-34.54,-49.79,-54.03,-57.23
2020/11/21 01:27:58+0000,-39.36,-50.51,-34.05,-49.41,-54.97,-56.65
2020/11/21 01:28:50+0000,-40.19,-51.01,-34.41,-49.00,-54.04,-56.45
2020/11/21 01:29:42+0000,-38.54,-51.70,-34.19,-49.44,-53.98,-56.27
2020/11/21 01:30:34+0000,-38.08,-50.63,-34.31,-49.16,-54.07,-57.06
2020/11/21 01:31:32+0000,-35.58,-51.55,-33.68,-48.85,-54.63,-56.49
2020/11/21 01:32:24+0000,-38.20,-50.67,-34.38,-49.16,-54.28,-56.78
2020/11/21 01:33:16+0000,-39.15,-50.24,-34.95,-49.42,-54.76,-56.41
2020/11/21 01:34:08+0000,-34.94,-51.42,-35.06,-49.48,-53.75,-56.40
2020/11/21 01:35:00+0000,-39.22,-50.86,-34.54,-49.21,-54.66,-56.74
2020/11/21 01:35:52+0000,-37.86,-52.22,-34.33,-48.66,-54.38,-56.80
2020/11/21 01:36:44+0000,-39.48,-50.55,-35.08,-48.66,-53.63,-56.82
2020/11/21 01:37:36+0000,-34.03,-51.53,-34.04,-48.78,-53.93,-56.24
2020/11/21 01:38:28+0000,-38.09,-51.48,-34.81,-48.67,-54.51,-56.78
2020/11/21 01:39:20+0000,-38.62,-46.76,-34.48,-49.26,-53.69,-56.47
2020/11/21 01:40:13+0000,-35.30,-48.74,-34.28,-48.92,-53.65,-56.45
2020/11/21 01:41:11+0000,-34.71,-47.73,-34.09,-48.13,-54.45,-56.54
2020/11/21 01:42:03+0000,-34.90,-50.51,-34.49,-49.20,-53.90,-56.48
2020/11/21 01:42:55+0000,-37.85,-51.10,-34.64,-49.01,-53.82,-56.47
2020/11/21 01:43:47+0000,-38.50,-48.34,-34.08,-49.00,-53.98,-56.26
2020/11/21 01:44:39+0000,-34.87,-46.65,-34.41,-49.14,-53.89,-56.65
2020/11/21 01:45:31+0000,-38.32,-52.08,-34.55,-49.47,-54.36,-57.05
2020/11/21 01:46:23+0000,-38.90,-51.37,-34.12,-49.03,-54.05,-56.35
2020/11/21 01:47:15+0000,-38.92,-50.75,-34.53,-48.71,-54.25,-56.81
2020/11/21 01:48:07+0000,-34.67,-52.31,-34.20,-49.06,-53.65,-56.99
2020/11/21 01:49:00+0000,-38.14,-51.30,-33.80,-49.23,-54.51,-56.77
2020/11/21 01:49:52+0000,-38.39,-52.17,-34.43,-48.50,-54.00,-56.88
2020/11/21 01:50:44+0000,-35.35,-50.79,-34.86,-49.07,-54.07,-56.09
2020/11/21 01:51:44+0000,-35.53,-51.58,-34.26,-49.05,-54.75,-56.79
2020/11/21 01:52:36+0000,-35.20,-51.58,-34.65,-49.65,-54.52,-56.69
2020/11/21 01:53:28+0000,-29.65,-51.77,-34.47,-49.05,-54.33,-56.76
2020/11/21 01:54:20+0000,-39.27,-50.81,-35.03,-48.53,-53.62,-56.03
2020/11/21 01:55:12+0000,-34.80,-51.03,-34.41,-49.32,-53.64,-56.96
2020/11/21 01:56:04+0000,-34.93,-51.92,-34.46,-49.21,-54.56,-56.62
2020/11/21 01:56:56+0000,-39.02,-52.06,-34.98,-49.32,-53.76,-55.13
2020/11/21 01:57:48+0000,-40.15,-51.10,-34.64,-48.49,-53.82,-54.37
2020/11/21 01:58:40+0000,-35.50,-50.61,-34.34,-48.68,-53.68,-53.86
2020/11/21 01:59:32+0000,-35.99,-51.45,-34.93,-48.78,-54.16,-54.27
2020/11/21 02:00:25+0000,-39.56,-50.82,-34.75,-49.01,-53.84,-53.93
2020/11/21 02:01:24+0000,-39.19,-51.08,-34.46,-49.37,-54.12,-54.93
2020/11/21 02:02:16+0000,-39.03,-50.90,-34.73,-49.24,-53.82,-55.07
2020/11/21 02:03:08+0000,-35.54,-51.10,-34.40,-49.31,-54.04,-55.14
2020/11/21 02:04:00+0000,-40.69,-51.10,-34.37,-48.88,-53.96,-54.91
2020/11/21 02:04:52+0000,-39.15,-50.67,-35.34,-49.15,-53.02,-54.65
2020/11/21 02:05:44+0000,-39.83,-51.35,-34.18,-49.42,-53.36,-55.25
2020/11/21 02:06:36+0000,-35.57,-52.05,-34.22,-49.16,-53.32,-55.16
2020/11/21 02:07:28+0000,-40.23,-51.09,-34.55,-48.58,-52.97,-55.39
2020/11/21 02:08:21+0000,-39.19,-51.67,-34.99,-48.31,-53.25,-54.92
2020/11/21 02:09:13+0000,-35.58,-50.65,-35.23,-49.45,-53.02,-54.68
2020/11/21 02:10:06+0000,-35.88,-52.10,-34.51,-49.04,-53.58,-55.27
2020/11/21 02:11:06+0000,-39.34,-51.66,-34.28,-48.84,-53.73,-55.65
2020/11/21 02:11:58+0000,-39.00,-44.53,-34.17,-48.63,-54.25,-55.30
2020/11/21 02:12:50+0000,-37.98,-51.70,-34.33,-48.83,-54.38,-55.03
2020/11/21 02:13:42+0000,-35.22,-49.77,-34.58,-48.87,-53.67,-54.72
2020/11/21 02:14:34+0000,-35.25,-41.16,-34.59,-48.81,-54.13,-54.83
2020/11/21 02:15:26+0000,-37.61,-41.36,-34.97,-48.93,-54.27,-54.93
2020/11/21 02:16:18+0000,-38.99,-51.16,-35.49,-49.19,-53.67,-54.77
2020/11/21 02:17:10+0000,-35.28,-51.03,-35.26,-48.47,-54.75,-54.40
2020/11/21 02:18:02+0000,-35.58,-41.10,-35.24,-49.55,-53.62,-54.24
2020/11/21 02:18:54+0000,-38.56,-41.04,-35.17,-48.96,-54.29,-54.28
2020/11/21 02:19:47+0000,-36.99,-51.18,-34.77,-48.80,-53.72,-54.45
2020/11/21 02:20:39+0000,-35.26,-50.88,-34.58,-49.04,-54.03,-54.85
2020/11/21 02:21:43+0000,-35.33,-41.13,-34.80,-48.62,-53.59,-54.48
2020/11/21 02:22:35+0000,-35.20,-51.20,-34.62,-48.68,-54.33,-54.62
2020/11/21 02:23:27+0000,-37.58,-51.14,-34.71,-48.95,-53.93,-54.42
2020/11/21 02:24:20+0000,-36.16,-51.05,-35.22,-48.62,-54.44,-54.03
2020/11/21 02:25:12+0000,-35.62,-50.64,-34.52,-49.12,-54.25,-54.25
2020/11/21 02:26:04+0000,-35.57,-51.80,-34.69,-49.21,-54.22,-54.48
2020/11/21 02:26:56+0000,-36.77,-51.51,-34.31,-49.66,-54.13,-54.33
2020/11/21 02:27:48+0000,-36.65,-41.43,-34.61,-47.31,-53.46,-54.20
2020/11/21 02:28:40+0000,-35.39,-42.14,-34.25,-48.50,-54.11,-54.27
2020/11/21 02:29:32+0000,-34.78,-47.98,-34.68,-49.18,-54.48,-53.95
2020/11/21 02:30:25+0000,-37.26,-45.73,-34.54,-48.35,-53.12,-54.49
2020/11/21 02:31:24+0000,-37.36,-47.35,-34.54,-49.49,-53.61,-55.62
2020/11/21 02:32:16+0000,-40.28,-46.99,-34.41,-49.20,-54.27,-54.61
2020/11/21 02:33:08+0000,-35.37,-46.65,-34.60,-49.73,-54.17,-54.29
2020/11/21 02:34:00+0000,-40.07,-46.76,-34.76,-49.23,-53.84,-55.15
2020/11/21 02:34:52+0000,-39.97,-46.85,-34.40,-48.77,-54.23,-54.68
2020/11/21 02:35:45+0000,-40.21,-45.66,-35.09,-49.30,-53.90,-55.22
2020/11/21 02:36:37+0000,-35.73,-47.50,-35.00,-49.29,-53.94,-54.18
2020/11/21 02:37:29+0000,-39.53,-39.91,-34.67,-48.80,-54.14,-53.73
2020/11/21 02:38:21+0000,-39.91,-48.11,-34.50,-49.53,-53.97,-53.97
2020/11/21 02:39:13+0000,-39.21,-45.48,-35.19,-49.10,-53.86,-53.92
2020/11/21 02:40:06+0000,-40.07,-46.43,-34.18,-48.97,-53.93,-54.15
2020/11/21 02:41:03+0000,-38.99,-46.37,-34.30,-47.65,-53.77,-54.99
2020/11/21 02:41:55+0000,-38.90,-46.10,-34.67,-48.14,-53.98,-54.19
2020/11/21 02:42:47+0000,-37.31,-45.37,-34.47,-49.04,-54.39,-53.70
2020/11/21 02:43:40+0000,-39.77,-45.47,-35.05,-48.84,-54.17,-54.11
2020/11/21 02:44:32+0000,-40.17,-47.85,-33.79,-49.76,-53.74,-54.05
2020/11/21 02:45:24+0000,-38.85,-47.62,-34.87,-48.45,-54.33,-53.81
2020/11/21 02:46:16+0000,-40.15,-46.41,-34.79,-49.40,-53.66,-53.94
2020/11/21 02:47:08+0000,-40.00,-48.51,-34.58,-49.38,-53.91,-53.23
2020/11/21 02:48:00+0000,-40.23,-47.78,-34.86,-49.73,-54.41,-53.96
2020/11/21 02:48:52+0000,-39.97,-46.73,-34.53,-48.54,-53.73,-53.69
2020/11/21 02:49:45+0000,-39.62,-48.04,-35.14,-49.27,-54.34,-53.60
2020/11/21 02:50:37+0000,-39.92,-47.00,-35.10,-49.35,-53.54,-54.80
2020/11/21 02:51:39+0000,-39.10,-45.20,-35.62,-49.36,-51.72,-53.45
2020/11/21 02:52:31+0000,-40.27,-39.64,-35.08,-48.49,-53.67,-54.24
2020/11/21 02:53:23+0000,-38.75,-41.65,-34.95,-49.17,-54.14,-55.85
2020/11/21 02:54:15+0000,-39.08,-51.47,-35.24,-48.78,-53.80,-53.73
2020/11/21 02:55:07+0000,-39.58,-52.14,-34.69,-49.19,-53.73,-54.87
2020/11/21 02:55:59+0000,-38.75,-39.38,-34.75,-49.63,-53.84,-54.91
2020/11/21 02:56:51+0000,-39.24,-47.45,-34.71,-49.11,-53.73,-53.90
2020/11/21 02:57:43+0000,-39.56,-46.47,-34.89,-49.84,-52.98,-54.58
2020/11/21 02:58:35+0000,-39.09,-48.27,-34.69,-49.04,-53.85,-53.77
2020/11/21 02:59:27+0000,-37.71,-46.59,-35.33,-49.08,-53.38,-53.84
2020/11/21 03:00:20+0000,-38.39,-46.39,-34.79,-48.74,-53.53,-54.30
2020/11/21 03:01:23+0000,-38.33,-46.57,-34.60,-49.55,-53.44,-54.94
2020/11/21 03:02:15+0000,-40.12,-46.54,-35.11,-48.93,-52.76,-54.33
2020/11/21 03:03:07+0000,-38.88,-47.72,-34.63,-49.07,-53.49,-54.60
2020/11/21 03:03:59+0000,-38.97,-45.17,-35.00,-49.00,-53.60,-54.71
2020/11/21 03:04:51+0000,-38.40,-47.30,-34.68,-49.14,-52.49,-55.05
2020/11/21 03:05:43+0000,-39.16,-48.34,-34.65,-49.65,-53.29,-54.05
2020/11/21 03:06:35+0000,-38.97,-48.20,-34.62,-49.10,-53.40,-54.27
2020/11/21 03:07:27+0000,-38.63,-46.50,-34.44,-49.38,-53.09,-54.15
2020/11/21 03:08:20+0000,-38.37,-48.46,-34.48,-49.04,-52.64,-54.18
2020/11/21 03:09:12+0000,-38.35,-46.19,-34.91,-49.04,-52.73,-54.32
2020/11/21 03:10:04+0000,-38.43,-45.53,-34.59,-49.67,-53.41,-54.89
2020/11/21 03:11:06+0000,-38.33,-45.64,-35.05,-49.26,-53.39,-54.36
2020/11/21 03:11:58+0000,-39.85,-45.83,-34.45,-49.06,-53.46,-54.19
2020/11/21 03:12:50+0000,-38.66,-47.23,-34.67,-49.10,-53.35,-54.04
2020/11/21 03:13:43+0000,-38.63,-46.55,-34.11,-48.90,-53.37,-54.57
2020/11/21 03:14:35+0000,-38.86,-46.25,-34.34,-48.94,-54.08,-54.22
2020/11/21 03:15:27+0000,-38.72,-45.34,-35.15,-49.50,-53.68,-54.82
2020/11/21 03:16:19+0000,-38.92,-46.68,-34.09,-49.26,-52.82,-54.62
2020/11/21 03:17:11+0000,-38.62,-45.85,-33.88,-49.44,-52.75,-54.60
2020/11/21 03:18:03+0000,-38.32,-45.43,-34.40,-48.88,-53.50,-54.25
2020/11/21 03:18:55+0000,-38.36,-44.90,-34.10,-49.06,-53.50,-55.29
2020/11/21 03:19:48+0000,-37.75,-47.59,-34.77,-48.60,-53.47,-54.93
2020/11/21 03:20:40+0000,-37.46,-47.12,-34.73,-49.15,-52.78,-54.87
2020/11/21 03:21:40+0000,-38.13,-47.47,-34.15,-49.15,-52.90,-54.33
2020/11/21 03:22:32+0000,-37.87,-46.04,-34.17,-49.08,-53.51,-54.30
2020/11/21 03:23:24+0000,-37.91,-46.37,-34.61,-48.90,-52.95,-54.42
2020/11/21 03:24:16+0000,-37.66,-46.42,-34.36,-49.23,-52.81,-55.74